Tracking 32941 objects as of 15-Jan-2026
HD Live streaming from Space Station
objects crossing your sky now

METEOR 2-17 DEB

Track METEOR 2-17 DEB now!
10-day predictions


NORAD ID: 35371
Int'l Code: 1988-005AF
Perigee: 872.8 km
Apogee: 895.4 km
Inclination: 82.5 °
Period: 102.5 minutes
Semi major axis: 7255 km
RCS: 0.0006 m2 (small)
Launch date: January 30, 1988
Source: Commonwealth of Independent States (former USSR) (CIS)
Launch site: PLESETSK MISSILE AND SPACE COMPLEX (PKMTR)

Note: This is SATELLITE DEBRIS
Your satellite tracking list
Your tracking list is empty




NASA's NSSDC Master Catalog

Two Line Element Set (TLE):
1 35371U 88005AF  26008.26195895  .00004158  00000-0  25772-2 0  9994
2 35371  82.5133   2.3031 0015603 330.1515  29.8765 14.04883083638053
Source of the keplerian elements: AFSPC